Date String (YYYY-MM-DD hh:mm:ss) UTC,Instrument flags,Ambient pressure (hPa),Sample flow (lpm),Bypass flow (lpm),Sample temperature (°C),Ambient temperature (°C),ASC tube jacket temperature (°C),LED temperature (°C),Box temperature (°C),Sample RH (%),Span deviation,Mass concentration (μg/m³),Mass concentration (μg/m³),Mass concentration (μg/m³)
DateTimeUTC,F1_M11,P_M11,Q1_M11,Q2_M11,T1_M11,T2_M11,T3_M11,T4_M11,T5_M11,U1_M11,ZSPAN_M11,X2_M11,X0_M11,X1_M11
2022-04-27 12:00:00,,0823.6,5.02,0.00,28.1,27.2,00.0,37.1,29.8,07.1,-000.3,0012.47,0033.57,0005.67
2022-04-27 12:01:00,,0823.6,5.00,0.00,28.1,27.1,00.0,37.1,29.8,07.1,-000.4,0012.51,0033.84,0005.65
2022-04-27 12:02:00,,0823.6,4.99,0.00,28.1,27.1,00.0,37.1,29.8,07.2,0001.2,0012.54,0034.14,0005.65
2022-04-27 12:03:00,,0823.6,5.01,0.00,28.1,27.1,00.0,37.1,29.8,07.3,0000.4,0012.45,0034.09,0005.66
2022-04-27 12:04:00,,0823.6,4.99,0.00,28.1,27.1,00.0,37.1,29.8,07.4,0001.2,0012.44,0033.93,0005.66
2022-04-27 12:05:00,,0823.6,5.02,0.00,28.1,27.1,00.0,37.1,29.8,07.4,0000.9,0012.51,0034.74,0005.64
2022-04-27 12:06:00,,0823.6,4.99,0.00,28.1,27.1,00.0,37.1,29.8,07.4,0000.7,0012.46,0035.07,0005.65
2022-04-27 12:07:00,,0823.6,5.01,0.00,28.1,27.1,00.0,37.1,29.8,07.4,0000.9,0012.45,0034.96,0005.66
2022-04-27 12:08:00,,0823.7,5.00,0.00,28.1,27.1,00.0,37.1,29.8,07.1,0000.3,0012.41,0034.16,0005.66
2022-04-27 12:09:00,,0823.7,5.00,0.00,28.0,27.1,00.0,37.1,29.8,07.1,-000.1,0012.38,0033.77,0005.68
2022-04-27 12:10:00,,0823.6,5.01,0.00,28.0,27.1,00.0,37.0,29.7,07.3,0000.4,0012.39,0033.57,0005.69
2022-04-27 12:11:00,,0823.7,4.99,0.00,28.0,27.1,00.0,37.0,29.7,07.4,0001.1,0012.42,0034.49,0005.68
2022-04-27 12:12:00,,0823.7,5.01,0.00,28.0,27.0,00.0,37.0,29.7,07.5,0002.7,0012.40,0035.79,0005.68
2022-04-27 12:13:00,,0823.7,4.99,0.00,28.0,27.0,00.0,37.0,29.7,07.6,0002.4,0012.36,0035.71,0005.68
2022-04-27 12:14:00,,0823.7,5.00,0.00,28.0,27.0,00.0,37.0,29.7,07.7,0002.4,0012.30,0034.92,0005.67
2022-04-27 12:15:00,,0823.7,5.01,0.00,28.0,27.0,00.0,37.0,29.7,07.7,0002.4,0012.42,0036.40,0005.66
2022-04-27 12:16:00,,0823.7,4.99,0.00,28.0,27.0,00.0,37.0,29.7,07.7,0002.6,0012.33,0036.70,0005.66
2022-04-27 12:17:00,,0823.7,4.99,0.00,28.0,27.0,00.0,37.0,29.7,07.6,0001.9,0012.37,0036.35,0005.65
2022-04-27 12:18:00,,0823.7,5.01,0.00,28.0,27.0,00.0,37.0,29.7,07.6,0001.4,0012.37,0036.39,0005.66
2022-04-27 12:19:00,,0823.8,4.99,0.00,28.0,27.0,00.0,37.0,29.7,07.5,0001.1,0012.31,0036.13,0005.66
2022-04-27 12:20:00,,0823.7,5.02,0.00,28.0,27.0,00.0,37.0,29.6,07.5,0002.0,0012.41,0035.75,0005.65
2022-04-27 12:21:00,,0823.8,4.98,0.00,28.0,26.9,00.0,37.0,29.6,07.5,0000.5,0012.48,0035.55,0005.63
2022-04-27 12:22:00,,0823.8,5.01,0.00,27.9,26.9,00.0,37.0,29.6,07.6,0000.5,0012.49,0035.14,0005.62
2022-04-27 12:23:00,,0823.8,5.00,0.00,27.9,26.9,00.0,37.0,29.6,07.5,0000.3,0012.48,0033.55,0005.63
2022-04-27 12:24:00,,0823.8,4.98,0.00,27.9,26.9,00.0,37.0,29.6,07.4,0000.7,0012.59,0034.10,0005.64
2022-04-27 12:25:00,,0823.8,5.00,0.00,27.9,26.9,00.0,37.0,29.6,07.4,0000.6,0012.84,0035.05,0005.67
2022-04-27 12:26:00,,0823.8,5.01,0.00,27.9,26.9,00.0,37.0,29.6,07.6,-000.6,0012.76,0033.60,0005.69
2022-04-27 12:27:00,,0823.8,5.00,0.00,27.9,26.8,00.0,36.9,29.6,07.7,-000.9,0012.82,0032.34,0005.70
2022-04-27 12:28:00,,0823.8,4.99,0.00,27.9,26.8,00.0,36.9,29.6,07.7,0000.3,0012.85,0031.96,0005.72
2022-04-27 12:29:00,,0823.8,5.02,0.00,27.9,26.8,00.0,36.9,29.6,07.7,0001.2,0012.88,0032.08,0005.69
2022-04-27 12:30:00,,0823.8,4.99,0.00,27.9,26.9,00.0,36.9,29.6,07.7,0002.8,0012.94,0032.82,0005.69
2022-04-27 12:31:00,,0823.8,4.99,0.00,27.9,26.9,00.0,36.9,29.6,07.6,0003.2,0012.84,0033.71,0005.69
2022-04-27 12:32:00,,0823.8,5.01,0.00,27.9,26.9,00.0,36.9,29.6,07.5,0004.4,0012.80,0033.09,0005.70
2022-04-27 12:33:00,,0823.8,4.99,0.00,27.9,26.9,00.0,36.9,29.7,07.5,0004.6,0012.92,0033.74,0005.71
2022-04-27 12:34:00,,0823.9,5.01,0.00,27.9,26.9,00.0,36.9,29.6,07.5,0005.5,0012.90,0034.47,0005.69
2022-04-27 12:35:00,,0823.9,4.99,0.00,27.9,26.9,00.0,36.9,29.6,07.4,0005.7,0012.83,0034.35,0005.70
2022-04-27 12:36:00,,0823.9,5.00,0.00,27.9,26.9,00.0,36.9,29.6,07.6,0004.4,0012.61,0034.63,0005.68
2022-04-27 12:37:00,,0823.9,5.01,0.00,27.9,26.9,00.0,36.9,29.6,07.7,0004.9,0012.62,0035.34,0005.67
2022-04-27 12:38:00,,0823.9,5.00,0.00,27.8,26.9,00.0,36.9,29.6,07.8,0004.5,0012.62,0035.89,0005.66
2022-04-27 12:39:00,,0823.9,5.00,0.00,27.8,26.9,00.0,36.9,29.6,07.9,0003.5,0012.60,0036.04,0005.65
2022-04-27 12:40:00,,0823.9,5.00,0.00,27.8,26.9,00.0,36.9,29.6,07.9,0003.4,0012.64,0036.14,0005.67
2022-04-27 12:41:00,,0823.9,5.00,0.00,27.8,26.9,00.0,36.8,29.6,07.9,0002.8,0012.62,0036.20,0005.67
2022-04-27 12:42:00,,0823.9,5.02,0.00,27.8,26.8,00.0,36.8,29.6,08.0,0002.1,0012.61,0034.96,0005.66
2022-04-27 12:43:00,,0823.9,4.99,0.00,27.8,26.8,00.0,36.8,29.6,08.0,0001.5,0012.55,0035.32,0005.64
2022-04-27 12:44:00,,0824.0,5.01,0.00,27.8,26.9,00.0,36.8,29.6,07.9,0001.8,0012.41,0034.61,0005.64
2022-04-27 12:45:00,,0823.9,4.99,0.00,27.8,26.8,00.0,36.8,29.5,07.9,0001.1,0012.35,0034.42,0005.65
2022-04-27 12:46:00,,0824.0,5.00,0.00,27.8,26.8,00.0,36.8,29.5,07.9,0001.6,0012.46,0034.53,0005.62
2022-04-27 12:47:00,,0823.9,5.01,0.00,27.8,26.8,00.0,36.8,29.6,07.9,0001.5,0012.49,0033.72,0005.62
2022-04-27 12:48:00,,0824.0,4.99,0.00,27.8,26.8,00.0,36.8,29.6,07.9,0001.5,0012.42,0033.39,0005.62
2022-04-27 12:49:00,,0823.9,5.01,0.00,27.8,26.8,00.0,36.8,29.6,07.8,0001.9,0012.32,0032.56,0005.63
2022-04-27 12:50:00,,0823.9,4.99,0.00,27.8,26.9,00.0,36.8,29.6,07.9,0001.9,0012.36,0033.04,0005.64
2022-04-27 12:51:00,,0823.9,5.02,0.00,27.8,26.9,00.0,36.8,29.6,07.6,0001.7,0012.28,0033.03,0005.64
2022-04-27 12:52:00,,0823.9,4.99,0.00,27.8,26.9,00.0,36.8,29.6,07.5,0001.5,0012.16,0032.34,0005.64
2022-04-27 12:53:00,,0824.0,4.99,0.00,27.8,26.9,00.0,36.8,29.6,07.5,0002.4,0012.18,0032.83,0005.67
2022-04-27 12:54:00,,0823.9,5.01,0.00,27.8,26.9,00.0,36.8,29.6,07.3,0003.2,0012.24,0032.94,0005.72
2022-04-27 12:55:00,,0823.9,4.99,0.00,27.8,26.9,00.0,36.8,29.6,07.2,0004.2,0012.30,0033.42,0005.73
2022-04-27 12:56:00,,0823.9,5.01,0.00,27.8,26.9,00.0,36.8,29.6,07.2,0005.5,0012.31,0032.94,0005.75
2022-04-27 12:57:00,,0823.9,4.99,0.00,27.8,26.9,00.0,36.8,29.6,07.1,0006.6,0012.16,0031.97,0005.78
2022-04-27 12:58:00,,0823.9,5.00,0.00,27.8,26.9,00.0,36.8,29.6,07.2,0008.8,0012.19,0032.71,0005.77
2022-04-27 12:59:00,,0824.0,5.00,0.00,27.8,26.9,00.0,36.8,29.6,07.7,0009.1,0012.22,0032.20,0005.77
